Glasgow, KY

12:37 PM CDT on July 22, 2017 (GMT -0500)
Glasgow Municipal

Weather History for KGLW - December, 2013

Change the Weather History Date:

Sunday, December 15, 2013

  Actual Average Record
Temperature  
Mean Temperature 31 °F -  
Max Temperature 33 °F 47 °F 70 °F (1984)
Min Temperature 29 °F 30 °F 4 °F (1958)
Degree Days  
Heating Degree Days 34    
Moisture  
Dew Point 27 °F    
Average Humidity 86    
Maximum Humidity 100    
Minimum Humidity 80    
Precipitation  
Precipitation 0.00 in - - ()
Sea Level Pressure  
Sea Level Pressure 30.13 in    
Wind  
Wind Speed 8 mph (West)    
Max Wind Speed 13 mph    
Max Gust Speed 18 mph    
Visibility 9 miles    
Events      
Averages and records for this station are not official NWS values.
T = Trace of Precipitation, MM = Missing Value Source: NWS Daily Summary

Daily Weather History Graph

Daily Weather History Graph

Search for Another Location

Airport or City:

Trip Planner

Search our weather history database for the weather conditions in past years. The results will help you decide how hot, cold, wet, or windy it might be!

Date:

Astronomy

Dec. 15, 2013 Rise Set
Actual Time 6:50 AM CST 4:28 PM CST
Civil Twilight 6:21 AM CST 4:57 PM CST
Nautical Twilight 5:48 AM CST 5:29 PM CST
Astronomical Twilight 5:16 AM CST 6:01 PM CST
Moon 3:30 PM CST (12/15) 5:07 AM CST (12/15)
Length of Visible Light 10h 36m
Length of Day
9h 38m
Waxing Gibbous, 98% of the Moon is Illuminated
Dec 15
Waxing Gibbous
Dec 17
Full
Dec 25
Last Quarter
Jan 1
New
Jan 7
First Quarter

Hourly Weather History & Observations

Time (CST) Temp. Windchill Dew Point Humidity Pressure Visibility Wind Dir Wind Speed Gust Speed Precip Events Conditions
12:15 AM 33.3 °F 26.4 °F 33.3 °F 100% 29.98 in 7.0 mi NW 8.1 mph 18.4 mph N/A   Overcast
12:35 AM 32.7 °F 23.4 °F 32.0 °F 97% 29.99 in 7.0 mi WNW 12.7 mph 18.4 mph N/A   Overcast
12:55 AM 32.4 °F 26.0 °F 31.5 °F 96% 30.00 in 7.0 mi NW 6.9 mph 16.1 mph N/A   Overcast
1:15 AM 32.2 °F 23.2 °F 32.0 °F 99% 30.01 in 5.0 mi WNW 11.5 mph 16.1 mph N/A   Overcast
1:35 AM 32.0 °F 25.6 °F 32.0 °F 100% 30.02 in 5.0 mi NW 6.9 mph - N/A   Overcast
1:55 AM 32.0 °F 24.8 °F 32.0 °F 100% 30.02 in 5.0 mi WNW 8.1 mph 16.1 mph N/A   Overcast
2:15 AM 32.0 °F 25.6 °F 32.0 °F 100% 30.03 in 7.0 mi NW 6.9 mph - N/A   Overcast
2:35 AM 32.0 °F 26.4 °F 32.0 °F 100% 30.04 in 5.0 mi NW 5.8 mph - N/A   Overcast
2:55 AM 32.0 °F 26.4 °F 31.6 °F 99% 30.04 in 7.0 mi WNW 5.8 mph - N/A   Overcast
3:15 AM 32.2 °F 26.7 °F 30.6 °F 94% 30.04 in 7.0 mi NW 5.8 mph - N/A   Overcast
3:35 AM 32.4 °F 23.0 °F 29.8 °F 90% 30.04 in 7.0 mi NNW 12.7 mph 17.3 mph N/A   Overcast
3:55 AM 32.5 °F 27.1 °F 28.6 °F 85% 30.04 in 10.0 mi WNW 5.8 mph - N/A   Overcast
4:15 AM 32.4 °F 26.0 °F 28.9 °F 87% 30.04 in 7.0 mi NW 6.9 mph 16.1 mph N/A   Overcast
4:35 AM 32.0 °F 23.6 °F 28.0 °F 85% 30.05 in 10.0 mi NW 10.4 mph 16.1 mph N/A   Overcast
4:55 AM 32.0 °F 24.8 °F 27.5 °F 83% 30.06 in 10.0 mi NW 8.1 mph - N/A   Overcast
5:15 AM 31.8 °F 25.4 °F 27.3 °F 83% 30.07 in 10.0 mi NW 6.9 mph - N/A   Overcast
5:35 AM 31.8 °F 26.2 °F 27.1 °F 83% 30.08 in 10.0 mi WNW 5.8 mph - N/A   Overcast
5:55 AM 31.5 °F 25.8 °F 27.5 °F 85% 30.09 in 10.0 mi West 5.8 mph - N/A   Overcast
6:15 AM 31.1 °F 23.1 °F 27.5 °F 87% 30.10 in 10.0 mi WNW 9.2 mph - N/A   Overcast
6:35 AM 30.7 °F 21.4 °F 27.0 °F 86% 30.11 in 10.0 mi WNW 11.5 mph 16.1 mph N/A   Overcast
6:55 AM 30.2 °F 24.3 °F 26.2 °F 85% 30.12 in 10.0 mi NW 5.8 mph - N/A   Overcast
7:15 AM 30.2 °F 23.4 °F 25.9 °F 84% 30.13 in 10.0 mi NW 6.9 mph 17.3 mph N/A   Overcast
7:35 AM 29.8 °F 23.0 °F 25.7 °F 85% 30.14 in 10.0 mi NW 6.9 mph - N/A   Overcast
7:55 AM 29.7 °F 22.8 °F 25.7 °F 85% 30.15 in 10.0 mi WNW 6.9 mph - N/A   Overcast
8:15 AM 29.8 °F 26.3 °F 26.2 °F 86% 30.16 in 7.0 mi West 3.5 mph - N/A   Overcast
8:35 AM 29.8 °F 22.2 °F 26.6 °F 88% 30.16 in 7.0 mi West 8.1 mph - N/A   Overcast
8:55 AM 29.7 °F 21.3 °F 26.1 °F 86% 30.18 in 7.0 mi West 9.2 mph - N/A   Overcast
9:15 AM 29.3 °F 21.5 °F 25.5 °F 86% 30.18 in 7.0 mi WNW 8.1 mph - N/A   Overcast
9:35 AM 29.3 °F 20.2 °F 24.8 °F 83% 30.19 in 10.0 mi West 10.4 mph 16.1 mph N/A   Overcast
9:55 AM 29.3 °F 20.8 °F 24.6 °F 83% 30.19 in 10.0 mi WNW 9.2 mph - N/A   Overcast
10:15 AM 29.3 °F 20.8 °F 24.8 °F 83% 30.19 in 7.0 mi West 9.2 mph - N/A   Overcast
10:35 AM 29.3 °F 21.5 °F 25.3 °F 85% 30.18 in 5.0 mi West 8.1 mph - N/A   Overcast
10:55 AM 29.5 °F 22.5 °F 25.7 °F 86% 30.18 in 5.0 mi West 6.9 mph - N/A   Overcast
11:15 AM 29.5 °F 22.5 °F 26.1 °F 87% 30.17 in 5.0 mi West 6.9 mph - N/A   Overcast
11:35 AM 30.0 °F 23.2 °F 26.1 °F 85% 30.16 in 7.0 mi West 6.9 mph - N/A   Overcast
11:55 AM 30.2 °F 21.3 °F 25.7 °F 83% 30.15 in 7.0 mi West 10.4 mph - N/A   Overcast
12:15 PM 30.2 °F 21.9 °F 25.7 °F 83% 30.14 in 7.0 mi West 9.2 mph - N/A   Overcast
12:35 PM 30.4 °F 22.9 °F 25.5 °F 82% 30.15 in 10.0 mi West 8.1 mph - N/A   Overcast
12:55 PM 30.6 °F 22.4 °F 25.2 °F 80% 30.15 in 10.0 mi West 9.2 mph - N/A   Overcast
1:15 PM 30.7 °F 24.1 °F 25.3 °F 80% 30.14 in 7.0 mi West 6.9 mph - N/A   Overcast
1:35 PM 30.7 °F 23.3 °F 25.7 °F 82% 30.14 in 7.0 mi West 8.1 mph - N/A   Overcast
1:55 PM 30.9 °F 22.2 °F 25.5 °F 80% 30.14 in 7.0 mi West 10.4 mph - N/A   Overcast
2:15 PM 30.9 °F 23.5 °F 25.7 °F 81% 30.16 in 7.0 mi West 8.1 mph - N/A   Overcast
2:35 PM 30.9 °F 24.3 °F 25.5 °F 80% 30.16 in 10.0 mi West 6.9 mph - N/A   Overcast
2:55 PM 31.1 °F 24.5 °F 25.7 °F 80% 30.17 in 10.0 mi WSW 6.9 mph - N/A   Overcast
3:15 PM 31.3 °F 23.9 °F 26.1 °F 81% 30.16 in 10.0 mi SW 8.1 mph - N/A   Overcast
3:35 PM 31.5 °F 25.8 °F 26.1 °F 80% 30.18 in 10.0 mi West 5.8 mph - N/A   Overcast
3:55 PM 31.5 °F 25.8 °F 25.9 °F 80% 30.19 in 10.0 mi West 5.8 mph - N/A   Overcast
4:15 PM 31.5 °F 24.2 °F 26.2 °F 81% 30.17 in 10.0 mi SW 8.1 mph - N/A   Overcast
4:35 PM 31.5 °F 24.2 °F 26.6 °F 82% 30.18 in 10.0 mi WSW 8.1 mph - N/A   Overcast
4:55 PM 31.5 °F 24.2 °F 26.6 °F 82% 30.18 in 10.0 mi WSW 8.1 mph - N/A   Overcast
5:15 PM 31.1 °F 24.5 °F 26.4 °F 83% 30.18 in 10.0 mi WSW 6.9 mph - N/A   Overcast
5:35 PM 31.1 °F 24.5 °F 26.2 °F 82% 30.18 in 10.0 mi SW 6.9 mph - N/A   Overcast
5:55 PM 31.1 °F 25.4 °F 26.4 °F 83% 30.17 in 10.0 mi SW 5.8 mph - N/A   Overcast
6:15 PM 31.5 °F 25.8 °F 26.6 °F 82% 30.17 in 10.0 mi SW 5.8 mph - N/A   Overcast
6:35 PM 31.5 °F 24.2 °F 26.6 °F 82% 30.18 in 10.0 mi WSW 8.1 mph - N/A   Overcast
6:55 PM 31.6 °F 24.4 °F 27.1 °F 83% 30.18 in 10.0 mi SW 8.1 mph - N/A   Overcast
7:15 PM 31.8 °F 23.3 °F 27.3 °F 83% 30.18 in 10.0 mi SW 10.4 mph - N/A   Overcast
7:35 PM 31.8 °F 23.9 °F 27.5 °F 84% 30.18 in 10.0 mi SW 9.2 mph - N/A   Overcast
7:55 PM 31.8 °F 23.3 °F 27.5 °F 84% 30.18 in 10.0 mi SW 10.4 mph - N/A   Overcast
8:15 PM 31.8 °F 23.9 °F 27.5 °F 84% 30.17 in 10.0 mi WSW 9.2 mph - N/A   Overcast
8:35 PM 31.8 °F 24.6 °F 27.7 °F 85% 30.17 in 10.0 mi SSW 8.1 mph - N/A   Overcast
8:55 PM 31.8 °F 23.9 °F 27.5 °F 84% 30.17 in 10.0 mi SSW 9.2 mph - N/A   Overcast
9:15 PM 31.8 °F 23.3 °F 27.5 °F 84% 30.18 in 10.0 mi WSW 10.4 mph - N/A   Overcast
9:35 PM 32.0 °F 24.2 °F 27.7 °F 84% 30.19 in 10.0 mi WSW 9.2 mph - N/A   Overcast
9:55 PM 31.8 °F 23.3 °F 27.5 °F 84% 30.19 in 10.0 mi SW 10.4 mph - N/A   Overcast
10:15 PM 31.8 °F 25.4 °F 27.5 °F 84% 30.19 in 10.0 mi WSW 6.9 mph - N/A   Overcast
10:35 PM 31.8 °F 23.3 °F 27.5 °F 84% 30.18 in 10.0 mi WSW 10.4 mph - N/A   Overcast
10:55 PM 31.8 °F 23.3 °F 27.9 °F 85% 30.18 in 10.0 mi WSW 10.4 mph - N/A   Overcast
11:15 PM 31.8 °F 23.3 °F 28.0 °F 86% 30.18 in 10.0 mi SW 10.4 mph - N/A   Overcast
11:35 PM 31.8 °F 22.3 °F 28.0 °F 86% 30.18 in 10.0 mi WSW 12.7 mph - N/A   Overcast
11:55 PM 31.8 °F 23.9 °F 27.9 °F 85% 30.18 in 10.0 mi WSW 9.2 mph - N/A   Overcast